Location: Newark
(40.4333°N, 3.7000°W)
Time: 10:32:46
(UTC+00:00)

ISS - Visible Passes

Search period start: 22 March 2019 00:00
Search period end: 01 April 2019 00:00
Orbit: 406 x 411 km, 51.6° (Epoch: 22 March)

Date Brightness Start Highest point End Pass type
(mag) Time Alt. Az. Time Alt. Az. Time Alt. Az.
22 Mar -3.0 20:09:35 10° WSW 20:12:48 49° NNW 20:13:32 40° NNE visible
23 Mar -3.9 19:18:26 10° SW 19:21:44 90° SSE 19:25:02 10° NE visible
23 Mar -1.0 20:56:15 10° WNW 20:57:58 17° NW 20:57:58 17° NW visible
24 Mar -1.7 20:04:36 10° W 20:07:26 25° NNW 20:09:26 15° NNE visible
25 Mar -2.4 19:13:07 10° W 19:16:14 38° NNW 19:19:21 10° NE visible
25 Mar -0.9 20:51:44 10° NW 20:53:29 14° N 20:53:29 14° N visible
26 Mar -1.1 19:59:57 10° WNW 20:02:09 16° NNW 20:04:21 10° NNE visible
27 Mar -1.5 19:08:12 10° WNW 19:10:51 21° NNW 19:13:29 10° NNE visible
27 Mar -0.9 20:47:01 10° NNW 20:48:21 12° N 20:48:29 12° N visible
28 Mar -1.0 19:55:22 10° NW 19:56:56 13° N 19:58:31 10° NNE visible
29 Mar -1.1 19:03:33 10° NW 19:05:32 15° NNW 19:07:31 10° NNE visible
29 Mar -1.0 20:41:37 10° NNW 20:43:10 13° N 20:43:10 13° N visible
30 Mar -1.1 19:50:23 10° NNW 19:51:44 12° N 19:53:03 10° NNE visible
30 Mar -0.3 21:26:39 10° NNW 21:26:49 11° NNW 21:26:49 11° NNW visible
31 Mar -1.4 20:35:43 10° NNW 20:37:42 16° NNE 20:37:42 16° NNE visible
